sat.trackr.live / text

‹ back to catalog

STARLINK-34845

NORAD 65289 · 2025-184S

PAYLOAD ACTIVE UNKNOWN

§ Identity

Operator
Country
US
Launch date
2025-08-22
Launch site
AFWTR
Launch vehicle
Mass (kg)
RCS (m²)

Purposes: comms

External: N2YO · Heavens-Above · Gunter

§ Orbital elements

Epoch: 2026-09-20T21:26:00.758976Z

Period
93.91 min
Inclination
97.2789°
Eccentricity
0.0000780
Mean motion
15.33408295 rev/d
Perigee alt
465.1 km
Apogee alt
466.2 km
Semi-major
6,843.8 km
B*
-1.4734e-4
RAAN
311.8384°
Arg perigee
187.3706°
Mean anomaly
172.7525°
Rev number
6,078

§ Raw data

STARLINK-348451 65289U 25184S   26263.89306434 -.00004823  00000+0 -14734-3 0  99962 65289  97.2789 311.8384 0000780 187.3706 172.7525 15.33408295 60789

JSON: /api/v1/satellites/65289 · /tle

For live sub-satellite position, see the globe view (requires WebGL).

§ Visibility from observer

Set your observer location to see the next 7 days of passes ≥ 10°. The values pass through the URL so the page stays shareable.

No JS? Fill the form by hand. The geolocation button needs JavaScript.